This demonstration page uses our WeatherBlox Daily Observations layout. Learn more.

Left ArrowRight Arrow

36.17497, -115.13722

Hourly Observations for September 20, 2017

Temp ( °F °C ) Dew Point ( °F °C ) Humidity (%) Winds ( mph kmh ) Pressure ( in mb ) Visibility ( mi km ) Precip ( " mm )
12:53 am 00:53 Clear 77 25 40 4.4 26 26 WSW 3 6 29.74 1007 10 16 0.00 0.00
1:53 am 01:53 Clear 75 23.9 40 4.4 28 28 Calm 29.73 1007 10 16 0.00 0.00
2:53 am 02:53 Clear 71 21.7 42 5.6 35 35 N 6 9 29.74 1007 10 16 0.00 0.00
3:53 am 03:53 Clear 70 21.1 41 5 35 35 N 6 9 29.74 1007 10 16 0.00 0.00
4:53 am 04:53 Clear 69 20.6 41 5 36 36 Calm 29.75 1008 10 16 0.00 0.00
5:53 am 05:53 Clear 68 20 41 5 38 38 NW 6 9 29.76 1008 10 16 0.00 0.00
6:53 am 06:53 Sunny 67 19.4 41 5 39 39 N 5 7 29.79 1009 10 16 0.00 0.00
7:53 am 07:53 Sunny 71 21.7 40 4.4 32 32 N 7 11 29.79 1009 10 16 0.00 0.00
8:53 am 08:53 Sunny 72 22.2 41 5 33 33 Calm 29.81 1009 10 16 0.00 0.00
9:53 am 09:53 Sunny 77 25 40 4.4 26 26 VRB 3 6 29.80 1009 10 16 0.00 0.00
10:53 am 10:53 Sunny 80 26.7 38 3.3 22 22 SSE 9 15 29.78 1009 10 16 0.00 0.00
11:53 am 11:53 Sunny 82 27.8 39 3.9 22 22 VRB 6 9 29.76 1008 10 16 0.00 0.00
12:53 pm 12:53 Sunny 86 30 40 4.4 20 20 S 9 15 29.73 1007 10 16 0.00 0.00
1:53 pm 13:53 Sunny 89 31.7 36 2.2 15 15 SSW 16 26 29.69 1005 10 16 0.00 0.00
2:53 pm 14:53 Sunny 91 32.8 36 2.2 14 14 SSW 16 26 29.66 1004 10 16 0.00 0.00
3:53 pm 15:53 Sunny 91 32.8 34 1.1 13 13 SW 21 33 29.63 1004 10 16 0.00 0.00
4:53 pm 16:53 Sunny 89 31.7 33 0.6 14 14 S 22 35 29.62 1003 10 16 0.00 0.00
5:53 pm 17:53 Sunny 87 30.6 34 1.1 15 15 SSW 17 28 29.63 1003 10 16 0.00 0.00
6:53 pm 18:53 Clear 85 29.4 32 0 15 15 S 10 17 29.63 1004 10 16 0.00 0.00
7:53 pm 19:53 Clear 85 29.4 33 0.6 15 15 SSE 10 17 29.63 1003 10 16 0.00 0.00
8:53 pm 20:53 Clear 84 28.9 35 1.7 17 17 S 12 19 29.63 1004 10 16 0.00 0.00
9:53 pm 21:53 Clear 82 27.8 39 3.9 22 22 SSW 18 30 29.62 1003 10 16 0.00 0.00
10:53 pm 22:53 Clear 80 26.7 39 3.9 23 23 SSW 29 46 29.59 1002 10 16 0.00 0.00
11:53 pm 23:53 Clear 78 25.6 41 5 27 27 S 13 20 29.62 1003 10 16 0.00 0.00

Powered by AerisWeather